Terminal Aerodrome Forecast
Issued by NWS Sterling, VA

Current Version | Previous Version | Graphics & Text | Print | Product List | Glossary On
Versions: 1 2 3 4 5 6 7 8 9 10 11 12 13 14 15 16 17 18 19 20 21 22 23
000
FTUS41 KLWX 300800 AAA
TAFDCA
TAF AMD
KDCA 300856Z 3009/0106 20007KT P6SM OVC007
     FM301000 VRB03KT 3SM BR FEW008 SCT025
     FM301300 VRB03KT P6SM FEW025 SCT050
     FM010300 VRB03KT P6SM BKN090=

USA.gov is the U.S. government's official web portal to all federal, state and local government web resources and services.